Погода в Далыре

Россия / Республика Саха (Якутия)     63°52′06″N   120°15′04″E
темп.,
°C
ветер,
м/с
пор.,
м/с
влажн.,
%
обл.,
%
осадки,
мм/ч
давл.,
гПа
погр.,
м
26 июля, пн
пн2600:00+18юз22606 0.0 100928
03:00+17зюз27673 0.0 1009126
06:00+18з27750 0.0 1009163
09:00+25зсз35530 0.0 1008396
12:00+30зсз45371 0.0 10071716
15:00+32сз362942 0.0 10063085
18:00+28зсз264552 0.0 1006213
21:00+24зсз246428 0.0 100671
27 июля, вт
вт2700:00+21зсз366532 0.0 1007112
03:00+21ссв27709 0.0 1008170
06:00+19ссв26840 0.0 1009208
09:00+24ссв24555 0.0 1010624
12:00+27ссв34432 0.0 10091228
15:00+29ссв34393 0.0 10091819
18:00+28ссв344133 0.0 10081762
21:00+22ссв266747 0.0 1008134
28 июля, ср
ср2800:00+19ссв2271100 0.0 100825
03:00+16св22793 0.0 100936
06:00+16всв25685 0.0 1010131
09:00+21св234837 0.0 1009526
12:00+23с24465 0.0 1008842
15:00+27ссв45344 0.0 10071658
18:00+26ссв35280 0.0 10071779
21:00+18св24550 0.0 100863
29 июля, чт
чт2900:00+14св39640 0.0 1009157
03:00+11всв28710 0.0 1011148
06:00+11св27620 0.0 1012169
09:00+18св36380 0.0 1012611
12:00+22св46295 0.0 10111444
15:00+24св46265 0.0 10101976
18:00+24ссв36284 0.0 10092122
21:00+18с225793 0.0 100930
30 июля, пт
пт3000:00+13в11585 0.0 100911
03:00+12ссв22504 0.0 100917
06:00+13с23555 0.0 101051
09:00+20с24394 0.0 1009454
12:00+24с24304 0.0 10081659
15:00+26с34264 0.0 10072164
18:00+26с34285 0.0 10062161
21:00+19ссз24540 0.0 100659